Presure
167 277 264 287 313 134 153 220 118 201 192 167 199 181 207 206 128 218 94 180 212 199 191 238 238 91 239 225 177 211 171 173
254 264 299 299 264 291 233 236 229 224 192 199 125 107 107 213 203 201 91 214 233 240 218 214 152 217 145 222 217 215 190 194
257 133 271 142 258 193 222 214 235 203 193 106 143 196 141 192 197 191 206 190 188 214 174 229 226 217 195 197 196 205 179 196
273 243 190 248 266 246 221 231 209 204 191 168 196 160 150 209 154 193 132 185 227 217 218 221 219 218 206 195 194 191 180 184
120 250 255 217 230 242 235 216 219 207 190 190 176 182 205 198 194 191 175 188 196 225 207 208 204 100 202 194 184 189 184 182
234 172 239 221 223 239 236 220 234 197 201 188 185 192 197 203 208 203 190 191 197 219 217 214 200 197 201 187 202 182 182 187
252 244 237 215 236 247 215 194 200 191 188 192 205 211 201 193 195 183 192 255 227 207 205 204 197 194 188 193 193 183 185 164
250 233 238 194 238 227 209 204 198 192 179 180 201 187 207 199 199 202 174 181 219 221 209 212 199 199 192 179 183 179 192 186
267 228 252 214 200 197 203 186 198 184 190 199 181 188 191 205 205 190 189 174 220 202 201 196 192 197 183 182 174 184 184 176
277 227 247 225 216 194 231 196 194 190 196 180 190 171 199 199 183 216 188 188 233 212 209 192 207 186 182 177 182 172 184 173
340 246 232 220 226 219 188 208 191 203 179 178 191 176 185 194 187 184 174 205 214 198 197 184 181 189 180 172 180 184 181 182
240 255 255 230 209 228 217 194 204 191 190 196 171 173 184 183 196 202 191 221 216 189 202 190 186 183 184 183 181 181 175 160
253 240 238 222 212 247 221 231 199 200 209 181 177 177 185 202 206 219 216 206 222 190 205 190 179 188 184 193 159 170 173 165
179 301 252 220 216 202 240 243 198 199 211 230 193 195 210 219 229 211 208 204 192 186 181 181 182 180 176 190 158 171 158 168
182 255 228 212 212 203 248 214 250 241 264 230 221 231 216 218 209 214 212 177 176 198 194 186 188 187 173 181 168 171 154 175
202 221 209 229 195 206 198 234 229 223 224 193 228 216 232 205 212 184 178 180 179 201 168 177 172 182 182 160 160 173 181 168
205 188 237 203 203 205 203 203 222 223 175 190 204 214 206 184 192 189 185 180 181 172 173 176 162 171 170 183 167 178 181 164
205 210 171 233 198 207 202 197 199 192 201 216 198 191 201 202 199 193 175 178 179 181 181 183 173 177 185 185 185 192 189 188
181 207 215 187 207 249 219 199 201 202 207 190 199 202 185 186 194 210 197 204 196 196 196 189 180 183 176 179 176 180 177 180
170 188 206 211 198 235 252 213 214 203 210 203 198 191 198 199 181 176 178 174 177 180 198 177 187 175 172 186 197 185 179 172
Wind_Speed
50 32 29 24 19 63 64 44 59 48 62 68 57 74 48 55 44 47 38 43 56 67 74 40 42 43 26 33 72 38 73 53
32 28 25 20 30 22 46 41 37 41 56 44 42 19 34 52 57 57 34 38 39 34 48 47 73 39 78 28 24 31 51 43
29 63 23 41 34 43 53 53 46 53 50 12 34 65 44 67 62 57 47 58 55 45 66 32 29 32 51 47 46 27 61 44
27 25 35 33 34 53 53 44 55 57 61 44 69 64 51 63 43 57 40 50 38 40 38 31 28 25 28 36 32 37 56 50
39 28 37 20 26 44 55 60 63 69 59 69 63 76 74 64 63 57 47 44 45 34 42 41 32 27 31 41 46 38 47 52
23 50 29 26 26 36 57 59 61 58 62 66 71 70 72 69 63 64 43 48 51 40 41 36 32 35 31 48 36 47 49 50
22 27 31 25 35 48 52 47 58 58 59 62 68 71 70 59 62 47 43 37 39 43 40 36 39 39 37 43 38 44 49 44
21 22 33 19 42 48 55 60 66 69 62 61 73 39 67 62 62 59 45 42 37 40 42 42 43 36 28 45 41 47 43 41
23 20 34 32 35 33 56 46 69 60 73 74 45 35 47 67 61 52 49 41 39 43 45 48 46 38 40 44 45 40 42 38
22 20 26 42 45 37 64 68 69 66 80 53 54 34 57 63 49 44 52 56 39 42 41 47 41 40 42 43 43 40 44 37
19 26 25 27 41 51 49 79 74 81 56 49 54 39 41 69 67 60 44 47 48 43 49 49 46 35 44 43 46 46 44 44
20 24 31 25 31 53 71 56 87 72 74 84 44 42 56 50 57 66 66 49 51 51 55 50 50 47 49 49 46 48 34 53
17 20 27 25 28 37 51 71 75 84 77 60 58 63 64 76 74 47 52 51 51 51 48 51 44 48 53 50 46 46 35 48
24 18 23 24 26 29 38 51 58 57 69 58 73 66 57 57 45 53 57 53 49 49 46 46 46 45 35 44 53 40 55 53
22 9 23 17 20 22 31 33 40 42 38 51 50 49 52 48 49 50 52 35 35 50 57 50 48 44 34 32 49 47 60 50
17 13 21 27 18 18 26 26 30 32 36 41 38 43 46 46 48 35 43 42 41 52 47 45 42 45 41 54 50 46 52 54
17 15 12 23 14 18 18 19 20 25 36 36 35 40 42 39 37 39 40 42 44 46 46 46 48 45 44 50 54 52 52 61
15 18 16 15 15 19 19 23 22 26 27 26 31 29 36 43 44 38 39 40 40 42 44 46 45 47 50 53 55 61 56 53
17 18 17 18 19 7 32 23 25 25 27 30 32 36 31 29 37 51 42 49 48 47 47 45 43 48 46 50 53 54 55 57
22 19 17 20 21 19 9 35 33 27 35 32 31 34 38 45 35 38 38 42 40 41 53 45 52 51 53 56 64 60 60 60
Wind_Direction
266 268 276 249 243 259 268 204 274 239 256 258 252 256 242 251 260 251 263 259 257 259 259 251 248 277 259 255 264 271 268 271
278 279 251 212 185 191 188 175 180 195 244 257 265 290 286 247 248 254 270 258 258 248 252 255 261 245 264 260 259 254 265 268
274 256 236 250 193 227 198 212 185 213 218 198 255 249 257 252 252 250 258 259 262 251 258 241 239 249 254 261 259 252 264 262
253 265 243 211 208 190 203 192 211 205 226 224 234 252 256 253 258 258 259 260 252 251 246 231 236 225 245 254 254 255 264 264
250 253 223 253 228 198 195 213 205 203 225 231 234 255 246 254 260 257 272 270 258 230 242 244 237 264 227 240 252 251 257 267
273 255 213 236 227 209 191 209 195 220 207 229 243 247 248 252 257 257 268 279 268 234 236 227 228 231 221 242 239 253 259 263
251 239 220 229 213 201 192 199 200 212 218 228 232 235 246 259 259 270 267 252 235 239 232 223 220 224 235 244 238 251 253 263
243 241 219 246 209 199 195 193 195 204 237 244 229 263 245 255 262 261 258 263 242 226 222 214 222 215 233 249 251 256 259 265
241 247 223 225 210 214 198 221 205 232 219 219 260 257 257 250 256 262 265 263 236 235 229 229 235 216 233 243 255 255 256 260
260 253 229 220 205 225 201 211 217 225 216 250 250 254 255 249 264 264 263 271 223 223 215 231 218 230 236 246 253 253 258 257
284 252 243 217 215 213 222 207 218 216 243 251 247 257 266 254 261 261 260 257 229 232 222 239 242 231 237 244 248 250 252 260
281 253 238 228 210 207 212 223 216 224 229 230 253 257 255 257 259 261 259 242 222 238 226 233 236 238 236 234 240 252 244 250
299 278 245 229 223 223 219 223 224 225 223 247 250 249 251 256 256 236 240 233 213 232 224 239 240 236 242 238 247 246 258 256
272 329 231 227 226 234 231 221 223 228 231 233 237 237 242 245 229 231 234 233 244 244 247 248 245 249 248 250 252 247 249 256
266 327 247 236 228 226 233 230 219 225 222 229 237 240 233 230 230 224 230 244 249 239 240 241 245 254 256 251 250 256 264 262
289 297 273 259 226 226 218 229 223 217 216 229 229 229 223 226 226 228 232 233 243 241 246 252 253 262 265 256 261 262 267 258
292 273 297 278 256 235 217 211 234 232 228 229 234 226 228 243 231 231 232 234 238 240 245 250 258 253 256 269 260 269 275 258
306 295 254 281 249 275 244 230 225 223 225 231 230 241 239 240 242 242 249 247 249 252 257 258 259 263 271 273 275 274 277 279
281 316 294 277 281 299 262 253 251 254 259 238 234 235 238 245 244 243 251 245 252 261 266 270 263 270 266 271 269 277 274 278
254 289 312 298 293 276 264 259 264 253 254 254 245 244 241 243 246 244 247 248 257 262 268 262 270 265 265 280 282 280 276 270